Flag for Germany Weather past 2 weeks in Lohne (Oldenburg), Lower Saxony, Germany

34 °F


Feels Like: 30 °F
Forecast: 39 / 44 °F
Wind: 5 mph from Southwest

Location: Bremen Airport

Current Time: Nov 27, 2015 at 2:45:50 AM

Latest Report: Nov 27, 2015 at 2:20 AM

Visibility: 5 mi

Pressure: 30.12 "Hg

Humidity: 100%

Dew point: 34 °F

Location of Lohne (Oldenburg)Location

Historic Weather in Lohne (Oldenburg) — Graph


Lohne (Oldenburg) temperature yesterday

Maximum temperature yesterday: 46 °F (at 12:50 PM)
Minimum temperature yesterday: 34 °F (at 12:20 AM)
Average temperature yesterday: 39 °F

Past Weeks' High & Low Weather Summary

High59 °F (Nov 12, 1:20 PM)100% (Nov 15, 1:50 AM)30.24 "Hg (Nov 15, 1:50 AM)
Low28 °F (Nov 22, 12:20 AM)57% (Nov 23, 1:20 PM)29.33 "Hg (Nov 21, 3:20 AM)
Average46 °F87%29.80 "Hg
* Reported Nov 12 1:20 AM — Nov 27 1:50 AM, Lohne (Oldenburg), Weather by CustomWeather, © 2015

Note: Actual official high and low records may vary slightly from our data, if they occured in-between our weather recording intervals... More about our weather records


Lohne (Oldenburg) weather history for previous 24 hours

Time TempWeatherWind HumidityBarometerVisibility
1:50 AM
Fri, Nov 27
34 °FFog.5 mph100%30.12 "Hg5 mi
1:20 AM34 °FFog.3 mph93%30.12 "Hg5 mi
12:50 AM34 °FFog.3 mph93%30.12 "Hg6 mi
12:20 AM34 °FFog.2 mph100%30.12 "HgN/A
11:50 PM
Thu, Nov 26
34 °FFog.2 mph100%30.12 "HgN/A
11:20 PM34 °FFog.2 mph100%30.12 "HgN/A
10:50 PM36 °FFog.3 mph100%30.12 "HgN/A
10:20 PM36 °FFog.3 mph100%30.12 "HgN/A
9:50 PM36 °FFog.2 mph100%30.12 "HgN/A
9:20 PM36 °FFog.3 mph100%30.12 "HgN/A
8:50 PM36 °FFog.2 mph100%30.12 "HgN/A
8:20 PM37 °FClear.3 mph93%30.12 "Hg10 mi
7:50 PM37 °FPassing clouds.3 mph93%30.12 "HgN/A
7:20 PM37 °FPassing clouds.1 mph100%30.09 "HgN/A
6:50 PM37 °FPassing clouds.5 mph93%30.09 "HgN/A
6:20 PM39 °FClear.5 mph93%30.09 "Hg10 mi
5:50 PM41 °FPassing clouds.5 mph93%30.07 "HgN/A
5:20 PM41 °FPassing clouds.7 mph87%30.07 "HgN/A
4:50 PM41 °FPassing clouds.10 mph87%30.07 "HgN/A
4:20 PM41 °FScattered showers. Passing clouds.5 mph87%30.04 "HgN/A
3:50 PM43 °FPassing clouds.6 mph81%30.04 "HgN/A
3:20 PM45 °FPassing clouds.6 mph81%30.04 "HgN/A
2:50 PM46 °FPassing clouds.8 mph76%30.04 "HgN/A
2:20 PM46 °FPassing clouds.9 mph76%30.01 "HgN/A
1:50 PM46 °FScattered showers. Scattered clouds.8 mph82%30.01 "HgN/A
1:20 PM46 °FScattered clouds.13 mph76%30.01 "HgN/A
12:50 PM46 °FScattered clouds.10 mph76%30.01 "HgN/A
12:20 PM45 °FPassing clouds.8 mph76%29.98 "HgN/A
11:50 AM45 °FPassing clouds.8 mph81%29.98 "HgN/A
11:20 AM43 °FScattered clouds.10 mph81%29.98 "HgN/A
10:50 AM43 °FPassing clouds.7 mph87%29.98 "HgN/A
10:20 AM39 °FPassing clouds.7 mph93%29.95 "HgN/A
9:50 AM36 °FPassing clouds.7 mph100%29.95 "HgN/A
9:20 AM36 °FPassing clouds.6 mph93%29.92 "HgN/A
8:50 AM34 °FPassing clouds.6 mph100%29.92 "HgN/A
8:20 AM36 °FPassing clouds.5 mph93%29.92 "HgN/A
7:20 AM34 °FPassing clouds.6 mph100%29.89 "HgN/A
6:50 AM36 °FPassing clouds.5 mph100%29.86 "HgN/A
6:20 AM37 °FPassing clouds.3 mph93%29.86 "HgN/A
5:50 AM37 °FPassing clouds.7 mph93%29.83 "HgN/A
5:20 AM37 °FPassing clouds.6 mph100%29.83 "HgN/A
4:50 AM37 °FPassing clouds.8 mph100%29.83 "HgN/A
4:20 AM37 °FPassing clouds.7 mph93%29.80 "HgN/A
3:50 AM37 °FPassing clouds.5 mph93%29.80 "HgN/A
3:20 AM37 °FPassing clouds.7 mph100%29.80 "HgN/A
2:50 AM37 °FLight rain. Passing clouds.8 mph93%29.77 "HgN/A
2:20 AM36 °FPassing clouds.7 mph100%29.77 "HgN/A
Weather by CustomWeather, © 2015

See weather overviewHow to use our weather pages